TimePST,TemperatureF,Dew PointF,Humidity,Sea Level PressureIn,VisibilityMPH,Wind Direction,Wind SpeedMPH,Gust SpeedMPH,PrecipitationIn,Events,Conditions,WindDirDegrees,DateUTC
12:51 AM,50.0,46.9,89,29.99,10.0,ENE,4.6,-,N/A,,Clear,70,2014-02-15 08:51:00
1:51 AM,51.1,46.0,83,29.98,10.0,Calm,Calm,-,N/A,,Clear,0,2014-02-15 09:51:00
2:51 AM,48.9,44.1,83,29.95,10.0,Calm,Calm,-,N/A,,Clear,0,2014-02-15 10:51:00
3:51 AM,51.1,37.9,61,29.94,10.0,Calm,Calm,-,N/A,,Clear,0,2014-02-15 11:51:00
4:51 AM,46.9,42.1,83,29.95,10.0,Calm,Calm,-,N/A,,Clear,0,2014-02-15 12:51:00
5:51 AM,46.9,41.0,80,29.97,10.0,NNE,3.5,-,N/A,,Clear,30,2014-02-15 13:51:00
6:51 AM,50.0,30.0,46,29.98,10.0,East,3.5,-,N/A,,Clear,90,2014-02-15 14:51:00
7:51 AM,51.1,36.0,56,30.00,10.0,ENE,3.5,-,N/A,,Clear,70,2014-02-15 15:51:00
8:51 AM,60.1,32.0,35,30.03,10.0,North,3.5,-,N/A,,Clear,350,2014-02-15 16:51:00
9:51 AM,60.1,52.0,75,30.04,10.0,West,3.5,-,N/A,,Clear,280,2014-02-15 17:51:00
10:51 AM,64.9,53.1,65,30.04,10.0,West,6.9,-,N/A,,Clear,270,2014-02-15 18:51:00
11:51 AM,61.0,55.0,81,30.04,10.0,WNW,10.4,-,N/A,,Clear,290,2014-02-15 19:51:00
12:13 PM,59.0,53.6,82,30.04,8.0,West,13.8,-,N/A,,Mostly Cloudy,280,2014-02-15 20:13:00
12:51 PM,57.9,54.0,87,30.01,10.0,West,6.9,-,N/A,,Mostly Cloudy,270,2014-02-15 20:51:00
1:05 PM,59.0,53.6,82,30.01,10.0,WNW,9.2,-,N/A,,Partly Cloudy,290,2014-02-15 21:05:00
1:51 PM,57.9,54.0,87,30.01,10.0,West,9.2,-,N/A,,Partly Cloudy,280,2014-02-15 21:51:00
2:51 PM,59.0,55.0,87,29.98,10.0,Calm,Calm,-,N/A,,Clear,0,2014-02-15 22:51:00
3:51 PM,57.9,54.0,87,29.97,10.0,West,4.6,-,N/A,,Clear,280,2014-02-15 23:51:00
4:51 PM,57.9,54.0,87,29.96,10.0,Calm,Calm,-,N/A,,Clear,0,2014-02-16 00:51:00
5:51 PM,55.9,54.0,93,29.96,8.0,West,3.5,-,N/A,,Clear,270,2014-02-16 01:51:00
6:51 PM,55.9,54.0,93,29.99,10.0,WNW,3.5,-,N/A,,Clear,300,2014-02-16 02:51:00
7:35 PM,55.4,53.6,94,29.99,10.0,West,4.6,-,N/A,,Scattered Clouds,260,2014-02-16 03:35:00
7:51 PM,55.9,54.0,93,29.99,10.0,West,4.6,-,N/A,,Mostly Cloudy,260,2014-02-16 03:51:00
8:51 PM,55.9,54.0,93,29.99,9.0,Calm,Calm,-,N/A,,Mostly Cloudy,0,2014-02-16 04:51:00
9:51 PM,55.0,54.0,96,29.99,5.0,Calm,Calm,-,N/A,,Overcast,0,2014-02-16 05:51:00
10:19 PM,55.4,53.6,94,29.99,1.8,Calm,Calm,-,N/A,,Overcast,0,2014-02-16 06:19:00
10:31 PM,55.4,53.6,94,29.99,0.8,Calm,Calm,-,N/A,,Mist,0,2014-02-16 06:31:00
10:51 PM,54.0,54.0,100,29.98,0.5,ENE,3.5,-,N/A,Fog,Fog,60,2014-02-16 06:51:00
11:51 PM,53.1,53.1,100,30.01,0.2,WSW,3.5,-,N/A,Fog,Fog,250,2014-02-16 07:51:00